Home   Weather   Metairie   Past weeks
Flag for USA

Past Weather in Metairie, Louisiana, USA — Yesterday and Last 2 Weeks

Now
71 °F

Passing clouds.


Feels Like: 76 °F
Forecast: 73 / 58 °F
Wind: 13 mph from East

Location: New Orleans International Airport

Current Time: Oct 23, 2019 at 12:01:48 pm

Latest Report: Oct 23, 2019 at 10:53 am


Visibility: 10 mi

Pressure: 30.21 "Hg

Humidity: 31%

Dew Point: 39 °F

Location of MetairieLocation

Past Weather in Metairie — Graph

°F

Metairie Temperature Yesterday

Maximum temperature yesterday: 77 °F (at 2:53 pm)
Minimum temperature yesterday: 64 °F (at 10:53 pm)
Average temperature yesterday: 70 °F

High & Low Weather Summary for the Past Weeks

 TemperatureHumidityPressure
High91 °F (Oct 10, 1:53 pm)94% (Oct 20, 6:53 am)30.21 "Hg (Oct 20, 6:53 am)
Low55 °F (Oct 23, 1:53 am)26% (Oct 22, 4:53 pm)29.72 "Hg (Oct 19, 3:20 am)
Average75 °F73%29.96 "Hg
* Reported Oct 8 10:24 am — Oct 23 10:53 am, Metairie. Weather by CustomWeather, © 2019

Note: Actual official high and low records may vary slightly from our data, if they occured in-between our weather recording intervals... More about our weather records

Advertising

Metairie Weather History for the Previous 24 Hours

Scroll right to see more
 ConditionsComfort  
Time TempWeatherWind HumidityBarometerVisibility
10:53 am
Wed, Oct 23
71 °FPassing clouds.13 mph31%30.21 "Hg10 mi
9:53 am69 °FPassing clouds.13 mph36%30.21 "Hg10 mi
8:53 am67 °FPassing clouds.8 mph44%30.19 "Hg10 mi
7:53 am59 °FPassing clouds.No wind67%30.19 "Hg10 mi
6:53 am57 °FPassing clouds.No wind67%30.18 "Hg10 mi
5:53 am56 °FPassing clouds.No wind70%30.16 "Hg10 mi
4:53 am56 °FPassing clouds.3 mph67%30.16 "Hg10 mi
3:53 am55 °FPassing clouds.No wind72%30.15 "Hg10 mi
2:53 am56 °FClear.No wind70%30.15 "Hg10 mi
1:53 am55 °FClear.No wind74%30.16 "Hg10 mi
12:53 am58 °FPassing clouds.No wind67%30.16 "Hg10 mi
11:53 pm
Tue, Oct 22
64 °FPassing clouds.3 mph52%30.17 "Hg10 mi
10:53 pm64 °FPassing clouds.No wind50%30.18 "Hg10 mi
9:53 pm68 °FPassing clouds.5 mph39%30.17 "Hg10 mi
8:53 pm67 °FPassing clouds.5 mph49%30.16 "Hg10 mi
7:53 pm69 °FPassing clouds.8 mph39%30.14 "Hg10 mi
6:53 pm70 °FPassing clouds.6 mph41%30.13 "Hg10 mi
5:53 pm74 °FPartly sunny.9 mph32%30.11 "Hg10 mi
4:53 pm77 °FPartly sunny.12 mph26%30.10 "Hg10 mi
3:53 pm77 °FPartly sunny.10 mph30%30.09 "Hg10 mi
2:53 pm77 °FPartly sunny.10 mph30%30.10 "Hg10 mi
1:53 pm76 °FPartly sunny.10 mph35%30.12 "Hg10 mi
12:53 pm75 °FPartly sunny.8 mph42%30.15 "Hg10 mi
Weather by CustomWeather, © 2019

See weather overview